Wind_Speed
5 4 5 6 7 8 8 9 9 9 9 8 8 9 9 10 11 11 11 11 11 10 10 10 10 9 9 9 8 8 8 7 7 8 8 8 8 7 7 6 6 5 5
6 5 6 7 8 9 10 10 10 10 10 10 10 10 10 11 11 11 11 11 11 11 10 9 9 8 8 7 7 7 7 7 6 7 8 8 8 7 7 7 6 6 6
8 7 7 8 9 10 11 12 12 12 11 11 11 10 10 11 11 11 11 11 11 10 9 9 8 7 7 6 6 6 6 6 6 7 7 8 8 8 7 7 7 7 7
9 9 9 9 10 11 12 13 13 13 12 12 11 11 11 11 11 11 11 10 10 9 8 8 7 6 5 5 5 6 6 6 7 7 8 8 8 8 8 8 8 8 8
9 9 10 10 11 12 13 14 14 14 13 13 12 11 11 11 11 10 10 10 9 8 7 6 6 5 5 5 5 6 6 6 7 8 8 8 8 8 8 8 8 8 8
10 10 10 11 11 12 14 14 15 14 14 13 12 12 11 11 10 10 9 8 7 7 6 5 5 4 4 5 5 6 6 6 7 8 8 8 8 8 9 9 9 9 9
9 9 9 10 11 13 14 15 15 15 14 13 13 12 11 10 10 9 8 7 6 5 4 4 4 4 4 5 5 6 6 6 7 8 8 8 9 9 9 9 9 9 9
8 8 9 10 11 12 13 14 14 15 14 14 13 12 11 10 9 8 8 6 5 4 4 4 4 4 4 5 5 5 6 6 7 8 8 8 9 9 9 10 10 10 9
8 9 9 10 11 12 12 13 14 14 14 14 13 12 11 10 9 8 7 6 5 4 4 4 4 4 4 5 5 5 5 6 7 8 8 9 9 9 10 10 10 10 10
9 10 10 10 10 11 12 13 13 14 14 14 13 12 11 10 9 8 7 6 5 5 4 4 4 5 5 5 5 6 6 6 7 8 8 9 10 9 10 10 11 11 11
9 10 10 10 10 11 12 13 14 14 14 13 13 12 11 10 9 8 7 6 6 5 5 5 5 6 6 7 7 7 6 7 7 8 9 9 10 10 11 10 11 12 12
10 10 9 9 10 11 12 13 14 13 13 13 13 12 11 10 9 8 7 6 6 6 6 6 7 7 7 8 8 9 8 8 9 9 10 10 10 11 11 11 12 12 13
10 10 10 9 10 11 12 13 13 14 13 13 13 12 11 10 9 8 8 7 7 7 7 7 8 9 9 10 10 11 11 11 11 12 13 12 12 12 12 12 13 14 14
11 10 9 9 10 11 12 12 13 13 13 13 13 12 11 11 10 9 8 8 8 9 9 9 10 11 12 13 13 14 14 14 14 15 15 15 15 14 13 13 14 15 16
12 11 9 10 10 10 11 12 13 13 13 13 13 12 12 11 11 10 10 10 10 10 11 11 13 14 15 16 17 17 17 17 17 17 17 17 17 17 16 16 16 17 18
14 13 12 11 11 11 12 12 13 13 13 13 13 13 13 12 12 12 11 11 12 12 13 14 15 17 18 20 20 21 21 20 20 21 20 20 20 20 20 20 20 20 21
17 15 14 13 13 13 13 13 14 14 14 14 14 14 14 14 14 13 13 13 14 14 16 17 18 20 22 23 24 24 24 24 24 24 23 23 23 22 22 23 23 23 23
20 18 17 16 16 15 15 16 15 15 15 15 15 15 15 15 15 15 15 15 16 17 18 20 21 22 23 24 26 26 26 26 25 24 25 25 25 25 24 25 25 26 27
23 21 20 19 18 18 17 17 17 16 16 17 17 17 16 16 17 17 17 17 18 19 21 21 22 23 24 25 25 26 26 26 25 25 25 25 26 26 27 27 28 28 29
26 24 24 23 21 20 19 19 18 18 18 18 18 18 17 17 18 18 19 20 21 22 22 23 24 25 25 26 26 26 25 26 26 26 26 26 26 27 29 30 30 30 32
27 26 26 26 24 22 21 20 20 19 19 19 19 19 19 20 20 20 21 22 22 23 24 24 25 26 26 26 26 26 26 26 26 27 27 27 28 28 30 32 33 34 35
28 27 26 26 25 24 23 23 23 22 22 21 21 21 22 23 23 23 23 24 24 24 24 26 27 28 28 27 27 27 26 27 28 27 28 29 30 31 33 34 35 36 38
29 28 29 28 26 26 24 24 24 24 24 23 22 22 23 23 23 22 22 24 25 25 26 26 26 26 26 27 28 28 27 27 29 29 30 30 32 34 35 36 37 38 39
30 29 29 28 27 28 26 25 26 24 25 25 24 22 22 22 22 22 22 23 24 25 26 27 26 25 25 25 25 26 28 29 31 31 32 33 34 36 37 38 39 41 42
31 30 28 27 28 27 28 27 27 25 25 26 24 22 22 21 21 20 19 19 21 23 24 25 25 26 27 26 26 28 30 31 33 34 35 36 37 38 39 41 43 45 47
29 29 29 29 29 28 28 28 28 27 27 25 23 23 22 21 20 20 20 20 23 25 26 27 27 28 28 28 30 31 33 34 35 37 38 38 40 41 43 44 46 48 50
Wind_Direction
248 244 238 236 238 239 241 243 246 248 254 261 271 281 287 290 293 294 294 293 293 293 294 294 295 296 295 293 291 287 284 282 279 277 275 274 272 270 269 269 272 273 280
272 267 254 250 251 250 251 251 251 252 256 262 271 279 285 288 291 293 294 294 294 296 297 297 297 298 298 296 294 291 291 288 283 278 274 272 271 270 269 269 273 273 279
274 271 262 258 257 256 255 254 254 254 257 262 268 275 279 284 287 289 291 293 294 297 298 299 299 299 299 297 296 297 298 295 290 284 279 276 275 277 276 275 275 274 276
275 270 267 263 261 258 257 256 255 255 256 260 265 270 275 280 283 285 287 289 292 295 297 298 299 300 303 304 303 303 303 302 298 294 290 284 279 279 278 280 279 276 275
270 269 269 267 264 261 259 257 255 254 254 257 261 265 271 276 279 280 282 285 287 290 292 294 297 302 307 310 311 311 312 310 303 298 293 288 284 282 281 282 279 278 275
263 264 265 265 263 261 259 257 255 254 254 256 258 261 265 271 274 276 278 279 279 281 283 287 293 301 307 311 314 315 316 312 303 297 295 290 287 289 283 281 278 276 273
263 264 267 264 262 260 257 255 254 254 253 253 255 256 260 264 268 270 271 271 270 270 273 281 288 298 307 311 313 314 314 308 299 295 294 290 287 287 280 277 275 273 271
265 265 265 264 261 258 255 252 250 250 249 249 250 252 253 256 261 263 263 262 260 259 264 272 280 292 305 309 312 315 317 309 295 291 293 288 286 284 278 277 276 273 272
269 267 267 263 259 256 253 250 247 245 245 245 246 247 248 251 255 256 256 254 252 251 254 265 277 289 301 308 313 319 324 316 301 296 294 289 286 280 277 275 274 272 271
263 262 264 260 258 255 250 247 245 243 242 241 241 241 243 247 250 252 251 249 245 246 253 266 281 291 301 313 320 324 325 320 308 301 296 293 289 283 282 277 274 271 270
257 258 259 256 254 253 250 246 244 241 239 238 237 237 239 243 247 248 248 247 246 249 257 270 285 294 299 310 318 321 323 319 311 306 302 298 294 286 284 282 278 274 270
252 252 255 255 250 249 247 244 240 238 236 235 234 233 236 241 244 245 246 246 249 254 262 275 286 293 297 305 312 314 314 313 310 304 301 300 294 287 285 284 281 277 273
246 248 248 250 251 249 245 241 237 235 234 232 231 231 234 237 240 243 245 248 252 258 268 280 289 293 296 302 307 307 306 304 303 300 299 295 291 286 284 283 281 278 275
239 241 241 245 251 250 245 240 236 234 232 230 229 229 230 233 237 242 248 254 260 267 275 284 290 292 295 299 301 302 301 302 298 296 293 290 286 283 283 281 280 280 278
237 240 237 242 244 244 241 238 236 233 231 229 227 227 228 231 237 244 250 257 266 273 278 283 288 290 294 298 300 301 301 299 296 293 290 288 286 283 279 279 279 279 277
233 237 237 240 242 244 239 235 234 232 232 231 228 228 230 234 240 246 252 261 268 275 280 285 291 292 294 297 297 297 296 296 291 288 289 287 286 285 279 277 276 275 274
234 236 235 240 244 246 241 236 235 233 234 233 233 234 236 240 244 247 253 262 268 275 281 286 289 290 290 293 293 294 294 294 291 288 284 283 284 283 280 279 278 276 273
237 235 234 239 241 241 240 237 236 236 237 239 239 238 241 244 247 249 255 263 270 276 283 286 286 287 289 290 291 291 292 291 289 287 283 280 281 281 280 280 278 277 276
243 241 242 238 237 236 237 236 236 236 237 238 239 240 244 248 251 255 260 265 271 277 283 287 288 287 288 289 289 290 290 288 287 286 285 281 279 279 279 278 277 276 275
243 243 245 243 239 236 236 235 235 236 237 239 241 243 246 253 256 259 266 270 272 278 283 288 291 289 288 289 291 289 288 286 285 284 284 281 279 278 279 277 276 274 276
241 242 244 245 240 239 239 237 238 237 238 242 245 246 251 257 261 265 270 274 276 278 282 286 291 290 289 289 289 287 285 285 284 283 283 281 279 279 279 278 275 272 274
242 239 236 236 241 240 242 241 239 240 242 243 245 251 256 260 264 270 274 275 278 279 282 284 286 288 285 284 286 282 283 285 283 283 282 281 280 279 277 276 275 275 275
243 238 237 237 239 238 243 243 241 244 245 246 247 252 257 260 265 271 274 277 278 281 283 283 285 286 285 283 283 281 278 279 282 282 282 280 280 279 278 278 277 277 277
243 242 242 241 242 242 244 246 244 248 249 249 251 257 263 266 269 272 276 279 281 282 284 282 282 285 287 285 283 281 280 280 282 282 282 281 280 279 278 278 279 279 278
245 244 246 247 248 248 246 247 248 250 252 252 253 260 265 270 274 282 289 288 288 291 291 288 286 285 286 286 286 286 285 283 283 282 282 281 280 280 280 281 280 279 279
251 254 253 255 254 252 250 251 253 257 257 257 261 266 270 275 280 287 293 295 295 293 291 289 288 285 282 284 285 284 283 282 283 282 282 281 281 280 280 281 281 280 280
Height
5907 5907 5907 5908 5909 5910 5910 5911 5911 5912 5912 5912 5913 5913 5913 5913 5913 5912 5912 5912 5911 5911 5910 5909 5908 5907 5906 5906 5905 5905 5905 5905 5904 5903 5903 5902 5902 5901 5901 5900 5900 5899 5899
5906 5906 5906 5907 5908 5909 5909 5910 5910 5911 5911 5911 5912 5912 5912 5912 5911 5911 5911 5910 5910 5909 5908 5908 5907 5906 5905 5905 5904 5904 5904 5903 5903 5902 5902 5901 5900 5900 5899 5899 5899 5898 5898
5904 5904 5905 5906 5906 5907 5908 5908 5909 5909 5910 5910 5911 5911 5911 5910 5910 5910 5910 5909 5909 5908 5907 5906 5906 5905 5905 5904 5903 5903 5902 5902 5901 5901 5900 5900 5899 5899 5898 5898 5898 5897 5897
5902 5902 5903 5904 5905 5905 5906 5907 5907 5908 5908 5909 5909 5909 5909 5909 5909 5909 5908 5908 5907 5907 5906 5905 5904 5904 5903 5903 5902 5902 5901 5900 5900 5899 5898 5898 5898 5897 5897 5896 5896 5896 5896
5899 5900 5901 5902 5903 5903 5904 5905 5906 5906 5907 5907 5907 5907 5907 5907 5907 5907 5907 5907 5906 5906 5905 5904 5903 5903 5902 5902 5901 5900 5900 5899 5898 5897 5897 5896 5896 5896 5895 5895 5895 5895 5894
5897 5898 5898 5899 5900 5901 5902 5903 5903 5904 5905 5905 5905 5906 5906 5906 5906 5906 5906 5906 5905 5905 5904 5903 5903 5902 5901 5901 5900 5900 5899 5898 5897 5896 5895 5895 5895 5894 5894 5893 5893 5893 5893
5894 5895 5896 5896 5897 5898 5899 5900 5901 5902 5903 5903 5904 5904 5904 5904 5904 5905 5905 5905 5904 5904 5903 5903 5902 5901 5901 5900 5899 5899 5898 5897 5896 5895 5894 5893 5893 5892 5892 5892 5891 5891 5891
5892 5892 5893 5894 5895 5895 5896 5897 5898 5900 5900 5901 5901 5902 5902 5902 5903 5903 5903 5903 5903 5903 5902 5902 5901 5901 5900 5899 5898 5898 5897 5896 5895 5893 5893 5892 5891 5891 5890 5890 5890 5889 5889
5889 5890 5891 5892 5892 5893 5893 5894 5896 5897 5898 5898 5899 5900 5900 5900 5901 5901 5902 5902 5902 5902 5901 5901 5900 5899 5899 5898 5897 5897 5896 5895 5893 5892 5891 5890 5890 5889 5888 5888 5888 5887 5887
5886 5888 5888 5889 5890 5890 5891 5892 5893 5894 5895 5896 5897 5897 5898 5898 5899 5900 5900 5900 5901 5901 5900 5900 5899 5898 5897 5897 5896 5896 5895 5894 5892 5891 5890 5889 5888 5887 5887 5886 5885 5885 5884
5884 5885 5886 5886 5887 5888 5889 5890 5891 5892 5892 5893 5894 5895 5896 5896 5897 5898 5898 5899 5899 5899 5898 5898 5897 5897 5896 5895 5894 5894 5893 5892 5891 5890 5889 5887 5887 5886 5885 5884 5883 5883 5882
5882 5883 5883 5884 5884 5885 5886 5887 5888 5889 5890 5891 5892 5893 5894 5894 5895 5896 5897 5897 5897 5897 5897 5896 5896 5895 5894 5893 5892 5892 5891 5891 5890 5888 5887 5886 5885 5884 5883 5882 5881 5881 5880
5879 5880 5881 5882 5882 5883 5884 5884 5885 5886 5887 5888 5890 5891 5891 5892 5893 5894 5895 5895 5895 5895 5895 5894 5894 5893 5892 5891 5890 5890 5889 5888 5887 5886 5885 5884 5883 5882 5881 5880 5879 5878 5877
5877 5878 5879 5879 5880 5881 5881 5882 5883 5884 5885 5886 5887 5888 5889 5890 5891 5891 5892 5892 5893 5893 5893 5892 5891 5890 5890 5889 5888 5887 5886 5885 5885 5883 5882 5881 5880 5879 5878 5877 5876 5875 5874
5874 5875 5876 5877 5878 5879 5879 5880 5880 5881 5882 5883 5885 5886 5887 5887 5888 5888 5889 5890 5890 5890 5890 5889 5889 5887 5886 5885 5884 5883 5882 5882 5881 5880 5879 5878 5877 5876 5874 5873 5872 5871 5870
5870 5872 5874 5874 5875 5876 5877 5877 5877 5878 5879 5881 5882 5883 5884 5885 5885 5886 5886 5886 5886 5886 5886 5886 5885 5884 5883 5882 5881 5879 5878 5877 5876 5875 5874 5873 5872 5871 5870 5868 5868 5867 5866
5867 5869 5871 5872 5872 5873 5874 5874 5875 5875 5876 5877 5879 5880 5881 5881 5882 5882 5883 5883 5883 5883 5883 5882 5881 5880 5878 5877 5876 5874 5873 5872 5871 5870 5868 5867 5866 5865 5864 5863 5862 5862 5861
5863 5865 5867 5868 5869 5870 5871 5871 5872 5872 5873 5874 5875 5876 5876 5877 5877 5878 5879 5879 5879 5878 5878 5877 5876 5875 5873 5872 5870 5869 5867 5866 5865 5864 5862 5861 5860 5859 5858 5857 5857 5856 5855
5858 5860 5863 5864 5865 5866 5867 5868 5868 5869 5869 5870 5871 5872 5872 5872 5873 5873 5874 5874 5874 5873 5873 5872 5871 5869 5867 5866 5864 5862 5861 5859 5858 5857 5856 5854 5853 5853 5852 5851 5850 5849 5847
5852 5855 5858 5859 5860 5861 5862 5863 5864 5865 5866 5866 5867 5868 5868 5868 5868 5868 5868 5868 5868 5868 5867 5866 5865 5863 5861 5859 5858 5856 5855 5854 5852 5851 5850 5848 5847 5846 5845 5844 5842 5841 5840
5846 5849 5851 5853 5854 5856 5857 5858 5859 5860 5861 5862 5862 5862 5862 5862 5862 5863 5863 5863 5862 5862 5861 5860 5858 5857 5855 5853 5852 5850 5849 5847 5846 5845 5843 5842 5841 5839 5838 5837 5835 5834 5832
5840 5842 5843 5846 5847 5849 5850 5851 5853 5854 5855 5856 5856 5856 5857 5857 5857 5857 5857 5857 5856 5856 5855 5853 5852 5850 5848 5847 5845 5844 5842 5841 5839 5838 5836 5835 5833 5832 5831 5829 5827 5825 5824
5833 5835 5837 5838 5840 5842 5844 5845 5847 5848 5849 5850 5850 5851 5851 5850 5850 5850 5850 5850 5850 5849 5848 5847 5845 5843 5841 5840 5839 5837 5836 5835 5833 5831 5829 5827 5826 5824 5822 5820 5819 5817 5815
5827 5830 5829 5830 5833 5836 5838 5839 5840 5841 5841 5842 5843 5844 5844 5843 5843 5843 5843 5843 5842 5842 5841 5839 5837 5836 5835 5833 5832 5830 5829 5827 5826 5824 5822 5820 5818 5816 5813 5811 5809 5807 5805
5821 5823 5825 5824 5827 5829 5831 5833 5833 5834 5834 5835 5836 5837 5838 5837 5836 5836 5836 5836 5835 5835 5833 5832 5830 5829 5828 5826 5825 5823 5821 5819 5817 5816 5813 5811 5809 5806 5804 5802 5799 5796 5793
5815 5818 5819 5820 5821 5823 5824 5825 5826 5827 5827 5827 5828 5829 5830 5830 5830 5830 5830 5829 5829 5828 5826 5825 5823 5822 5820 5818 5817 5815 5813 5811 5809 5806 5804 5801 5799 5796 5794 5791 5787 5784 5781